www.pogodaiklimat.ru
ПОГОДА в Нарве
Время
(UTC), дата
01 30.11
02 30.11
03 30.11
04 30.11
05 30.11
06 30.11
07 30.11
08 30.11
09 30.11
10 30.11
11 30.11
12 30.11
13 30.11
14 30.11
15 30.11
16 30.11
17 30.11
18 30.11
19 30.11
20 30.11
21 30.11
22 30.11
23 30.11
00 1.12
01 1.12
02 1.12
03 1.12
04 1.12
05 1.12
06 1.12
07 1.12
08 1.12
09 1.12
10 1.12
11 1.12
12 1.12
13 1.12
14 1.12
15 1.12
16 1.12
17 1.12
18 1.12
19 1.12
20 1.12
21 1.12
22 1.12
23 1.12
00 2.12
01 2.12
02 2.12
03 2.12
04 2.12
05 2.12
06 2.12
07 2.12
08 2.12
09 2.12
10 2.12
11 2.12
12 2.12
13 2.12
14 2.12
15 2.12
16 2.12
17 2.12
18 2.12
19 2.12
20 2.12
21 2.12
22 2.12
23 2.12
00 3.12
01 3.12
02 3.12
03 3.12
04 3.12
05 3.12
06 3.12
07 3.12
08 3.12
09 3.12
10 3.12
11 3.12
12 3.12
13 3.12
14 3.12
15 3.12
16 3.12
17 3.12
18 3.12
19 3.12
20 3.12
21 3.12
22 3.12
23 3.12
00 4.12
01 4.12
02 4.12
03 4.12
04 4.12
05 4.12
06 4.12
07 4.12
08 4.12
09 4.12
10 4.12
11 4.12
12 4.12
13 4.12
14 4.12
15 4.12
16 4.12
17 4.12
18 4.12
19 4.12
20 4.12
21 4.12
22 4.12
23 4.12
00 5.12
01 5.12
02 5.12
03 5.12
04 5.12
05 5.12
06 5.12
07 5.12
08 5.12
09 5.12
10 5.12
11 5.12
12 5.12
13 5.12
14 5.12
15 5.12
16 5.12
17 5.12
18 5.12
19 5.12
20 5.12
21 5.12
22 5.12
23 5.12
00 6.12
01 6.12
02 6.12
03 6.12
04 6.12
05 6.12
06 6.12
07 6.12
08 6.12
09 6.12
10 6.12
11 6.12
12 6.12
13 6.12
14 6.12
15 6.12
16 6.12
17 6.12
18 6.12
19 6.12
20 6.12
21 6.12
22 6.12
23 6.12
00 7.12
Ветер
(напр.,м/с)
Видим. Явления Облачность Т
(С)
Тd
(С)
f
(%)
Тe
(С)
Тes
(С)
Комфортность P
(гПа)
Po
(гПа)
Тmin
(С)
Tmax
(С)
R
(мм)
R24
(мм)
S
(см)
С 7 20 км н/о +0.3 -2.4 82 -7 -7 прохладно 991.0 987.5 0.4
С 6 6000 м н/о +0.3 -2.8 80 -6 -6 по сезону 991.9 988.4 0.1
СЗ 5-9
{11}
20 км в посл. час снег {ливн. осадки, дождь} 9/9 300 м
[As trans Cc]
+0.3 +0.2 99 -5 -5 по сезону 993.1 989.6 +0.2 +4.9 0.6
СЗ 5 20 км н/о -0.2 -4.9 71 -6 -6 по сезону 994.1 990.6
СЗ 5 20 км н/о -0.7 -5.7 69 -7 -7 тепло 995.2 991.7
СЗ 5 20 км 9/9 600 м
[As op Ci sp]
-1.4 -1.4 100 -7 -7 по сезону 996.4 992.9 -1.4 +4.9
СЗ 4 20 км н/о -1.8 -7.9 63 -7 -7 по сезону 997.6 994.1
СЗ 5 20 км н/о -1.9 -8.5 61 -8 -8 тепло 998.4 994.9
СЗ 5
{11}
20 км {ливн. осадки} 9/9 600 м
[As op Cs]
-1.4 -2.0 96 -7 -7 по сезону 999.1 995.6 -2.0 +4.9
СЗ 6 20 км н/о -0.9 -8.2 58 -7 -7 по сезону 999.7 996.2
СЗ 6 20 км н/о -0.4 -7.7 58 -7 -7 тепло 1000.6 997.1
СЗ 6 20 км 1/1 600 м
[Ac trans Ci ing]
+0.2 -2.0 85 -6 -6 по сезону 1001.2 997.7
СЗ 6 20 км н/о +0.4 -6.8 58 -6 -6 по сезону 1001.7 998.2
СЗ 6 20 км н/о +0.5 -6.3 60 -5 -5 тепло 1002.4 998.8
СЗ 6-10
{11}
20 км 8/5 600 м
[As op Ci fib]
-0.2 -2.0 88 -6 -6 по сезону 1003.5 999.9 -2.0 +0.5 0.1
СЗ 4 20 км н/о -0.4 -7.0 61 -5 -5 по сезону 1004.3 1000.8
СЗ 3 20 км н/о -0.7 -7.3 61 -5 -5 тепло 1004.6 1001.1
СЗ 3 20 км 1/1 600 м
[As op Cs]
-0.7 -2.0 91 -5 -5 по сезону 1005.2 1001.6 -2.0 +0.5
СЗ 3 20 км н/о -0.3 -7.8 57 -4 -4 тепло 1005.5 1002.0
ЮЗ 3 20 км н/о -4.0 -8.7 70 -9 -9 тепло 1005.9 1002.3
ЮЗ 3 20 км 9/1 1500 м
[Ac und Cs]
-3.6 -4.2 96 -9 -9 прохладно 1006.3 1002.8 -4.2 +0.5
ЮЗ 6 19 км н/о -2.1 -6.5 72 -9 -9 по сезону 1006.6 1003.0
З 4 400 м н/о -2.3 -4.2 87 -8 -8 тепло 1006.8 1003.2 0.9
ЮЗ 2
{9}
20 км в посл. час снег 1/1 300 м
[As trans Ci]
-4.3 -4.3 100 -8 -8 прохладно 1007.2 1003.6 -4.3 +0.5 1
СЗ 3 20 км н/о -1.6 -7.9 62 -6 -6 по сезону 1007.8 1004.2
З 3 20 км н/о -1.5 -8.2 60 -6 -6 тепло 1008.0 1004.4
ЮЗ 4 20 км слаб. ливневой снег 9/9 1000 м
[Ac trans Cs]
-3.3 -4.6 91 -9 -9 прохладно 1008.3 1004.7 -4.6 0.0
ЮЗ 4 20 км н/о -3.9 -7.7 75 -10 -10 по сезону 1008.4 1004.8 0.1
ЮЗ 4 20 км н/о -3.1 -5.9 81 -9 -9 по сезону 1008.5 1004.9 0.2
З 6 7000 м слаб. ливневой снег 9/6 100 м
[Cs]
-2.8 -4.6 87 -10 -10 холодно 1008.5 1004.9 -4.6 -0.1 0.4
ЮЗ 5 20 км н/о -3.8 -7.4 76 -11 -11 по сезону 1008.4 1004.8 0.1
ЮЗ 5 20 км н/о -3.6 -7.3 75 -10 -10 по сезону 1008.6 1005.0
ЮЗ 5-8
{9}
20 км слаб. ливневой снег 9/9 600 м
[As op Cs]
-3.0 -4.6 89 -10 -10 холодно 1008.5 1004.9 -4.6 -1.1 0.1
ЮЗ 6 20 км н/о -2.2 -5.9 76 -9 -9 по сезону 1007.9 1004.4
ЮЗ 6 20 км н/о -1.2 -5.7 71 -8 -8 тепло 1007.8 1004.2
ЮЗ 6 20 км {ливн. осадки} ясно -1.1 -4.6 77 -8 -8 прохладно 1007.6 1004.1
ЮЗ 6 20 км н/о -1.4 -5.5 74 -8 -8 по сезону 1007.4 1003.8
ЮЗ 5 20 км н/о -1.5 -5.4 75 -8 -8 по сезону 1007.2 1003.7
ЮЗ 6-8
{10}
20 км ясно -1.7 -4.1 84 -9 -9 прохладно 1006.9 1003.3 -4.1 -0.9
ЮЗ 6 20 км н/о -1.6 -6.1 71 -8 -8 по сезону 1006.9 1003.3
ЮЗ 6 20 км н/о -1.4 -6.2 70 -8 -8 тепло 1006.7 1003.1
ЮЗ 6 20 км 4/4
[Ac cuf Ci]
-1.3 -4.1 81 -8 -8 прохладно 1006.3 1002.8 -4.1 -0.9
ЮЗ 7 20 км н/о -1.1 -5.9 70 -8 -8 по сезону 1005.9 1002.3
ЮЗ 7 20 км н/о -0.8 -5.8 69 -8 -8 тепло 1005.5 1002.0
ЮЗ 8-12
{12}
20 км 9/1 1500 м
[Ac und Cs]
-0.5 -3.0 83 -8 -8 прохладно 1004.8 1001.3 -3.0 -0.5
ЮЗ 7 20 км н/о 0.0 -5.5 66 -7 -7 по сезону 1004.6 1001.1
ЮЗ 6 20 км н/о +0.2 -4.4 71 -6 -6 тепло 1004.5 1000.9
ЮЗ 6 3300 м слаб. снег {дождь} 10/10 200 м
[Cs]
-0.3 -1.9 89 -7 -7 по сезону 1004.2 1000.6 0.1
ЮЗ 6 1800 м н/о -0.4 -2.3 87 -7 -7 по сезону 1003.7 1000.2 0.3
ЮЗ 6 20 км н/о -0.2 -2.5 84 -7 -7 тепло 1003.4 999.9 0.1
ЮЗ 5
{10}
18 км слаб. ливневой снег 10/10 200 м
[Cs]
-0.2 -1.9 88 -6 -6 по сезону 1003.2 999.7 -1.9 +0.3 0.5
ЮЗ 5 19 км н/о -0.3 -2.4 86 -6 -6 по сезону 1003.2 999.6 0.1
ЮЗ 4 20 км н/о -0.8 -3.1 84 -6 -6 тепло 1003.1 999.6 0.1
ЮЗ 4 20 км {ливн. осадки} 9/4 1000 м
[Ac trans Cs]
-0.6 -1.5 94 -6 -6 по сезону 1003.1 999.5 -1.5 +0.3 0.2
ЮЗ 4 20 км н/о -0.5 -3.1 83 -6 -6 по сезону 1003.3 999.7
ЮЗ 4 20 км н/о -0.3 -3.4 80 -6 -6 тепло 1003.6 1000.1
ЮЗ 4 20 км 6/6 1000 м
[Ac lent Cs]
-0.6 -0.9 98 -6 -6 по сезону 1003.8 1000.3 -0.9 +0.3
ЮЗ 5 20 км н/о -0.2 -3.8 77 -6 -6 по сезону 1003.8 1000.3
ЮЗ 3 20 км н/о +0.2 -4.2 72 -4 -4 тепло 1004.0 1000.5
ЮЗ 4 20 км 1/1 1500 м
[Ac und Cs]
-0.7 -0.9 99 -6 -6 по сезону 1003.9 1000.3
ЮЗ 4 20 км н/о -1.6 -5.1 77 -7 -7 по сезону 1004.0 1000.4
ЮЗ 4 20 км н/о -2.9 -5.5 82 -9 -9 по сезону 1004.4 1000.9
ЮЗ 4 20 км в посл. час снег {ливн. осадки} 1/1 1500 м
[Ac und Cs]
-3.0 -3.1 99 -9 -9 прохладно 1004.3 1000.7 -3.1 +0.4
ЮЗ 5 20 км н/о -2.3 -5.4 79 -9 -9 по сезону 1004.6 1001.1
ЮЗ 5 1700 м н/о -2.5 -4.7 85 -9 -9 по сезону 1005.2 1001.7 0.4
ЮЗ 5 20 км слаб. ливневой снег 5/5 1000 м
[Ac trans Cs]
-2.9 -3.1 99 -10 -10 холодно 1005.4 1001.8 -3.1 +0.4 0.5
ЮЗ 4 20 км н/о -3.1 -6.0 80 -9 -9 по сезону 1005.6 1002.0 0.1
ЮЗ 3 20 км н/о -3.9 -6.7 81 -9 -9 по сезону 1006.0 1002.4
ЮЗ 4 20 км в посл. час снег {ливн. осадки} 6/6 600 м
[As op Cs]
-3.3 -4.4 92 -9 -9 прохладно 1006.3 1002.7 -4.4 +0.4 0.1
ЮЗ 4 20 км н/о -3.0 -6.3 78 -9 -9 по сезону 1006.8 1003.2
З 3 20 км н/о -2.7 -6.3 76 -8 -8 тепло 1007.0 1003.4
ЮЗ 4 20 км {ливн. осадки} 6/6 600 м
[As op Cs]
-3.5 -4.4 93 -10 -10 холодно 1007.3 1003.7 -4.4 -0.6
ЮЗ 4 20 км н/о -2.5 -6.3 75 -8 -8 по сезону 1007.5 1004.0
ЮЗ 3 20 км н/о -2.4 -6.2 75 -7 -7 тепло 1007.8 1004.2
ЮЗ 3 20 км 6/6 600 м
[As op Cs]
-2.2 -4.4 85 -7 -7 по сезону 1008.0 1004.5 -4.4 -1.8
СЗ 4 20 км н/о +0.8 -5.8 61 -4 -4 тепло 1008.3 1004.7
СЗ 4 20 км н/о +0.4 -6.0 62 -5 -5 тепло 1008.0 1004.5
ЮЗ 4 20 км 6/6 600 м
[As op Ci]
-2.2 -4.4 85 -8 -8 прохладно 1008.3 1004.7 -4.4 +0.9
ЮЗ 3 20 км н/о -2.1 -6.0 75 -7 -7 по сезону 1008.6 1005.0
н/о
ЮЗ 4 8000 м слаб. ливневой снег 9/9 600 м
[As op Ci ing]
-1.7 -3.8 86 -7 -7 по сезону 1008.8 1005.3 -3.8 +0.9 0.1
СЗ 6 20 км н/о +1.2 -5.0 63 -5 -5 по сезону 1008.7 1005.2 0.1
СЗ 6 20 км н/о +1.3 -5.3 61 -4 -4 тепло 1009.0 1005.5
СЗ 5 20 км {ливн. осадки} 6/6 600 м
[As op Ci ing]
+1.3 -3.5 70 -4 -4 по сезону 1009.1 1005.6 0.1
СЗ 5 20 км н/о +1.3 -4.9 63 -4 -4 по сезону 1009.4 1005.8
З 3 20 км н/о -0.8 -4.8 74 -5 -5 тепло 1009.5 1005.9
ЮЗ 4
{9}
20 км слаб. снег 8/8 600 м
[As op Cs]
-1.2 -2.9 88 -7 -7 прохладно 1009.3 1005.7 -2.9 +1.5
ЮЗ 4 20 км н/о -1.5 -4.8 78 -7 -7 по сезону 1009.4 1005.8 0.1
ЮЗ 4 20 км н/о -2.1 -5.2 79 -8 -8 тепло 1009.3 1005.7
ЮЗ 5 20 км {ливн. осадки} 9/9 1000 м
[Ac lent Ci sp]
-1.9 -2.4 96 -8 -8 прохладно 1009.1 1005.5 -2.4 +1.5 0.1
ЮЗ 5 20 км н/о -2.9 -5.3 83 -10 -10 по сезону 1009.0 1005.4
ЮЗ 5 20 км н/о -2.8 -5.5 82 -9 -9 по сезону 1008.6 1005.0
ЮЗ 5 20 км 9/6
[Ac cuf Ci]
-2.1 -3.0 94 -9 -9 прохладно 1008.1 1004.6 -3.0 +1.5
ЮЗ 5 20 км н/о -1.6 -5.3 76 -8 -8 по сезону 1007.5 1004.0
ЮЗ 5 20 км н/о -1.1 -4.8 76 -7 -7 тепло 1006.9 1003.3
ЮЗ 5 20 км 10/0
[Ac und Cc]
-0.3 -3.0 82 -6 -6 по сезону 1006.2 1002.7 0.1
ЮЗ 4 20 км н/о +0.2 -3.1 78 -5 -5 по сезону 1005.6 1002.1
ЮЗ 6 8000 м н/о +0.3 -2.1 84 -6 -6 тепло 1004.2 1000.7 0.4
ЮЗ 7-11
{13}
18 км в посл. час дождь 10/10 100 м
[Cs]
+0.8 -3.0 76 -6 -6 по сезону 1002.9 999.4 -3.0 +0.9 0.5
ЮЗ 6 3300 м н/о +0.9 -1.0 87 -6 -6 по сезону 1002.6 999.1 0.1
ЮЗ 7 3200 м н/о +1.1 -0.7 88 -6 -6 тепло 1002.2 998.6 0.1
ЮЗ 6 3100 м слаб. ливневой дождь 10/10 50 м
[Ci ing]
+1.3 -3.0 73 -5 -5 по сезону 1001.5 998.0 -3.0 +1.3 0.3
ЮЗ 6 2300 м н/о +1.3 -0.4 88 -5 -5 по сезону 1001.0 997.5 0.1
н/о
ЮЗ 5
{10}
6000 м слаб. дождь 10/10 100 м
[Ci]
+2.5 -2.1 72 -3 -3 по сезону 1000.7 997.2 -2.1 +2.5 0.9
З 6 2200 м н/о +3.3 +1.6 89 -2 -2 тепло 1000.7 997.2 0.1
З 8 20 км н/о +4.7 +2.1 83 -1 -1 тепло 1001.3 997.8 0.2
З 8 20 км {морось} 10/10 300 м
[As trans Ci sp]
+5.2 -0.3 68 -1 -1 по сезону 1001.4 997.9 0.4
З 6 20 км н/о +5.1 +1.9 80 0 0 тепло 1001.9 998.5 0.1
З 7 20 км н/о +5.3 +1.9 79 0 0 тепло 1002.6 999.2 0.1
З 6-10
{14}
20 км 1/1 300 м
[As trans Cs]
+4.9 +0.6 74 1003.0 999.5 +0.6 +5.4 0.3
З 7 20 км н/о +5.0 +1.4 78 -0 -0 тепло 1004.0 1000.5 0.1
З 7 20 км н/о +5.1 +1.1 75 -0 -0 тепло 1004.4 1000.9 0.1
ЮЗ 4
{12}
20 км ясно +3.6 +1.2 84 -1 -1 по сезону 1005.1 1001.6 +1.2 +5.4 0.3
З 5 20 км н/о +3.3 +0.8 84 -2 -2 тепло 1005.6 1002.1
З 5 20 км н/о +3.2 +0.8 84 -2 -2 тепло 1006.0 1002.5
ЮЗ 5 20 км 1/1
[Ac As Ci ing]
+2.7 +2.5 99 -3 -3 по сезону 1006.4 1002.9 +2.5 +5.4 0.1
ЮЗ 5 20 км н/о +2.6 +0.5 86 -3 -3 тепло 1006.6 1003.1 0.1
ЮЗ 5 20 км н/о +2.6 +0.9 89 -3 -3 тепло 1006.5 1003.0 0.1
ЮЗ 4 7000 м дымка 10/10 50 м
[Ci ing]
+3.2 +2.4 94 -2 -2 по сезону 1006.4 1002.9 0.3
ЮЗ 4 20 км н/о +3.6 +1.9 89 -1 -1 тепло 1006.4 1002.9 0.1
ЮЗ 4 20 км н/о +3.9 +1.6 85 -1 -1 тепло 1005.8 1002.3 0.1
ЮЗ 5-9
{9}
20 км 10/10 100 м
[Cs]
+4.3 +2.4 87 -1 -1 по сезону 1005.1 1001.6 +2.4 +5.3 0.3
ЮЗ 4 20 км н/о +4.4 +2.3 86 0 0 тепло 1004.8 1001.3 0.1
ЮЗ 6 20 км н/о +4.9 +2.3 83 -0 -0 тепло 1004.3 1000.9 0.1
ЮЗ 6 20 км 10/10 200 м
[Cs]
+4.9 +2.4 84 1004.0 1000.6 +2.4 +5.0 0.3
ЮЗ 7 20 км н/о +4.9 +2.0 81 -1 -1 тепло 1003.7 1000.2 0.1
ЮЗ 6-9
{12}
20 км н/о +5.0 +1.7 79 0 0 тепло 1003.7 1000.2 +2.4 +5.1 0.3
ЮЗ 6-8
{12}
20 км 10/10 300 м
[As trans Ci sp]
+5.2 +2.4 82 1003.6 1000.1 +2.4 +5.2 0.3
ЮЗ 6 20 км н/о +5.3 +0.4 71 +1 +1 тепло 1003.2 999.7 0.1
ЮЗ 6 20 км н/о +5.5 +0.4 70 +1 +1 тепло 1002.7 999.2
ЮЗ 6 20 км 10/10 300 м
[As op]
+5.6 +3.2 85 +1 +1 тепло 1002.1 998.6 0.1
ЮЗ 7 20 км н/о +5.8 +0.4 68 +1 +1 тепло 1001.4 997.9 0.1
ЮЗ 6 20 км н/о +5.6 +0.8 71 +1 +1 тепло 1000.4 997.0 0.1
ЮЗ 4
{12}
6000 м слаб. морось 10/10 200 м
[As trans]
+4.5 +4.2 98 1000.1 996.7 +4.2 +5.8 0.3
ЮЗ 4 20 км н/о +5.0 +2.4 83 +1 +1 тепло 1000.0 996.6 0.2
ЮЗ 5 20 км н/о +4.8 +2.1 83 0 0 тепло 999.6 996.1 0.1
ЮЗ 4 20 км {морось} 10/10 600 м
[As op Cs]
+4.8 +4.4 97 999.1 995.7 +4.4 +5.8 0.4
ЮЗ 6 20 км н/о +4.8 +1.8 81 -0 -0 тепло 998.6 995.2 0.1
ЮЗ 6 20 км н/о +4.8 +1.8 81 -0 -0 тепло 998.1 994.7 0.1
ЮЗ 5-8
{10}
20 км в посл. час осадки {ливн. осадки} 10/10 1000 м
[Ac und]
+4.8 +4.4 97 997.7 994.2 +4.4 +5.8 0.3
ЮЗ 5 20 км н/о +4.6 +1.7 81 -0 -0 тепло 997.4 994.0 0.1
ЮЗ 5 20 км н/о +4.7 +1.6 80 0 0 тепло 996.7 993.3 0.1
ЮЗ 6-10
{10}
20 км в посл. час дождь {ливн. осадки} 10/10 1000 м
[Ac lent Ci]
+4.7 +4.4 98 -1 -1 по сезону 996.2 992.7 +4.4 +5.8 0.3
ЮЗ 7 16 км н/о +4.8 +1.9 81 -1 -1 тепло 995.5 992.0 0.2
ЮЗ 6 20 км н/о +5.0 +1.9 80 0 0 тепло 995.1 991.7 0.1
ЮЗ 7-11
{11}
10 км слаб. дождь 9/9 200 м
[Cs]
+4.8 +4.4 97 -1 -1 по сезону 994.7 991.2 +4.4 +5.1 0.6
ЮЗ 7 19 км н/о +4.9 +2.2 83 -1 -1 тепло 994.2 990.8 0.1
ЮЗ 6 17 км н/о +4.8 +2.1 83 -0 -0 тепло 993.5 990.1 0.1
ЮЗ 6 16 км слаб. дождь 9/9 200 м
[Cs]
+4.6 +4.5 99 -1 -1 по сезону 992.9 989.5 +4.5 +5.0 0.6
ЮЗ 6 16 км н/о +4.6 +1.5 80 -1 -1 тепло 992.4 988.9 0.1
ЮЗ 7-12
{13}
7000 м {ливн. осадки, дождь} н/о +4.2 +1.4 82 -2 -2 тепло 991.8 988.4 +4.2 +5.0 0.8
ЮЗ 7-14
{14}
7000 м слаб. дождь 9/9 200 м
[Cc]
+3.9 +3.9 100 -2 -2 по сезону 991.4 988.0 +3.9 +5.0 1
ЮЗ 9 5000 м н/о +3.4 +0.6 82 -3 -3 тепло 991.0 987.6 0.3
Ю 8 5000 м н/о +2.7 +0.3 84 -4 -4 тепло 990.7 987.2 0.2
ЮЗ 8 7000 м слаб. дождь 10/10 100 м
[Cs]
+2.6 +2.6 100 -4 -4 по сезону 990.2 986.7 0.7
ЮЗ 9 7000 м н/о +2.2 -0.6 82 -5 -5 по сезону 990.1 986.7 0.2
Ю 8 4900 м н/о +2.0 -0.3 85 -5 -5 тепло 990.2 986.7 0.1
Ю 8-12
{14}
8000 м в посл. час осадки {ливн. осадки} 10/10 100 м
[Cs]
+2.4 +2.0 97 -4 -4 по сезону 990.1 986.6 +2.0 +5.0 0.4
ЮЗ 8 3900 м н/о +3.0 +0.9 86 -4 -4 по сезону 990.4 987.0 0.1
ЮЗ 7 3700 м н/о +3.8 +1.8 87 -2 -2 тепло 990.5 987.1 0.4
ЮЗ 7 6000 м слаб. ливневой дождь 10/10 100 м
[Ci]
+4.5 +2.0 84 -1 -1 по сезону 990.8 987.4 +2.0 +4.9 0.7
ЮЗ 6 10 км н/о +4.5 +2.6 87 -1 -1 тепло 991.3 987.8 0.1
ЮЗ 6 14 км н/о +5.0 +3.1 88 -0 -0 тепло 991.6 988.2 0.2
ЮЗ 5
{11}
19 км слаб. ливневой дождь 9/9 100 м
[Ci]
+5.4 +2.0 79 +1 +1 тепло 992.0 988.6 +2.0 +5.4 0.5
ЮЗ 5 5000 м н/о +5.7 +4.0 89 +1 +1 тепло 992.4 989.0 0.2
ЮЗ 5 8000 м н/о +5.7 +4.0 89 +1 +1 тепло 992.7 989.3 0.2
ЮЗ 5-8
{9}
17 км {ливн. осадки} 10/10 120 м
[]
+5.9 +2.0 76 +1 +1 тепло 993.1 989.7 +2.0 +6.0 0.5
Местоположение метеостанции Нарва (Эстония): широта 59.37 долгота 28.12 высота над уровнем моря 30 м.
В архиве по умолчанию представлена погода в Нарве за последнюю неделю. Архивные данные за месяц целиком и за предыдущие месяцы, начиная с января 2011 года, Вы можете получить, выбрав интересующий диапазон дат из раскрывающегося списка и нажав кнопку "Найти!".
*Определитесь, кто Вы:
Внимание! Время в таблицах - всемирное. Для получения местного времени необходимо прибавить поправку, которая равна 2 ч.
Смотрите также архив погоды в соседних городах и на ближайших метеорологических станциях:
Партнеры нашего сайта:      
Пояснения к столбцам:
  • Ветер - указаны скорость ветра в м/с - средняя за 10 мин, порывы в срок и между сроками (в фигурных скобках) и направление, откуда дует ветер: С - северный,
  • СВ - северо-восточный, В - восточный, ЮВ - юго-восточный, Ю - южный, ЮЗ - юго-западный, З - западный, СЗ - северо-западный.
  • Видимость - горизонтальная дальность видимости в метрах или километрах. При видимости от 1 до 10 км при отсутствии осадков обычно наблюдается дымка, при ухудшении видимости до 1 км и менее - туман. В сухую погоду видимость может ухудшаться дымом, пылью или мглою.
  • Явления - указаны атмосферные явления, наблюдавшиеся в срок или в последний час перед сроком; фигурными скобками обозначены явления, наблюдавшиеся между сроками (за 1-3 часа до срока); квадратными скобками обозначены град или гололедные отложения с указанием их диаметра в мм.
  • Облачность - указаны через наклонную черту общая и нижняя облачность в баллах и высота нижней границы облаков в метрах; квадратными скобками обозначены формы облаков: Ci - перистые, Cs - перисто-слоистые, Cc - перисто-кучевые, Ac - высококучевые, As - высокослоистые, Sc - слоисто-кучевые, Ns - слоисто-дождевые, Cu - кучевые, Cb - кучево-дождевые. Подробнее классификацию облаков см. в Атласе облаков (PDF).
  • T - Температура воздуха - температура, измеренная на высоте 2 м над землей.
  • Td - Температура точки росы - температура, при понижении до которой содержащийся в воздухе водяной пар достигнет насыщения.
  • f - Относительная влажность воздуха - влажноcть воздуха, измеренная на высоте 2 м над землей.
  • Te - Эффективная температура - температура, которую ощущает одетый по сезону человек в тени. Характеристика душности погоды. При расчете учитывается влияние влажности воздуха и скорости ветра на теплоощущения человека.
  • Tes - Эффективная температура на солнце - температура, которую ощущает человек, с поправкой на солнечный нагрев. Характеристика знойности погоды. Зависит от высоты солнца над горизонтом, облачности и скорости ветра. Ночью, в пасмурную погоду, а также при ветре 12 м/с и более поправка равна нулю.
  • P - Атмосферное давление - приведенное к уровню моря атмосферное давление.
  • Po - Атмосферное давление - измеренное на уровне метеостанции атмосферное давление.
  • Tmin - Минимальная температура - минимум температуры воздуха на высоте 2 м над землей.
  • Tmax - Максимальная температура - максимум температуры воздуха на высоте 2 м над землей.
  • R - Количество осадков - Количество выпавших осадков за период времени, мм. При наведении курсора мыши на число - период времени, за который выпало указанное количество осадков.
  • R24 - Количество осадков - Количество выпавших осадков за 24 часа, мм.
  • S - Снежный покров - Высота снежного покрова, см. При наведении курсора мыши на число - состояние снежного покрова и степень покрытия местности в баллах.